Year,Month,Day,Hour,Minute,Value (Times are PST for temperature in C)
2013,10,27,00,00,8.50
2013,10,27,00,01,8.50
2013,10,27,00,02,8.50
2013,10,27,00,03,8.50
2013,10,27,00,04,8.50
2013,10,27,00,05,8.50
2013,10,27,00,06,8.50
2013,10,27,00,07,8.50
2013,10,27,00,08,8.50
2013,10,27,00,09,8.50
2013,10,27,00,10,8.50
2013,10,27,00,11,8.50
2013,10,27,00,12,8.40
2013,10,27,00,13,8.40
2013,10,27,00,14,8.30
2013,10,27,00,15,8.30
2013,10,27,00,16,8.30
2013,10,27,00,17,8.20
2013,10,27,00,18,8.20
2013,10,27,00,19,8.20
2013,10,27,00,20,8.20
2013,10,27,00,21,8.10
2013,10,27,00,22,8.10
2013,10,27,00,23,8.10
2013,10,27,00,24,8.10
2013,10,27,00,25,8.00
2013,10,27,00,26,8.00
2013,10,27,00,27,8.00
2013,10,27,00,28,8.00
2013,10,27,00,29,8.00
2013,10,27,00,30,7.90
2013,10,27,00,31,7.90
2013,10,27,00,32,7.90
2013,10,27,00,33,7.90
2013,10,27,00,34,7.90
2013,10,27,00,35,7.90
2013,10,27,00,36,7.90
2013,10,27,00,37,7.90
2013,10,27,00,38,7.90
2013,10,27,00,39,7.90
2013,10,27,00,40,7.90
2013,10,27,00,41,7.90
2013,10,27,00,42,7.90
2013,10,27,00,43,7.80
2013,10,27,00,44,7.80
2013,10,27,00,45,7.80
2013,10,27,00,46,7.80
2013,10,27,00,47,7.80
2013,10,27,00,48,7.80
2013,10,27,00,49,7.70
2013,10,27,00,50,7.70
2013,10,27,00,51,7.70
2013,10,27,00,52,7.70
2013,10,27,00,53,7.60
2013,10,27,00,54,7.60
2013,10,27,00,55,7.60
2013,10,27,00,56,7.50
2013,10,27,00,57,7.40
2013,10,27,00,58,7.40
2013,10,27,00,59,7.30
2013,10,27,01,00,7.30
2013,10,27,01,01,7.30
2013,10,27,01,02,7.30
2013,10,27,01,03,7.20
2013,10,27,01,04,7.20
2013,10,27,01,05,7.20
2013,10,27,01,06,7.20
2013,10,27,01,07,7.20
2013,10,27,01,08,7.10
2013,10,27,01,09,7.10
2013,10,27,01,10,7.10
2013,10,27,01,11,7.00
2013,10,27,01,12,7.00
2013,10,27,01,13,7.00
2013,10,27,01,14,6.90
2013,10,27,01,15,6.90
2013,10,27,01,16,6.90
2013,10,27,01,17,6.90
2013,10,27,01,18,6.90
2013,10,27,01,19,7.00
2013,10,27,01,20,7.00
2013,10,27,01,21,7.00
2013,10,27,01,22,7.00
2013,10,27,01,23,7.00
2013,10,27,01,24,6.90
2013,10,27,01,25,6.90
2013,10,27,01,26,6.90
2013,10,27,01,27,6.90
2013,10,27,01,28,6.90
2013,10,27,01,29,6.90
2013,10,27,01,30,6.90
2013,10,27,01,31,6.90
2013,10,27,01,32,6.80
2013,10,27,01,33,6.80
2013,10,27,01,34,6.80
2013,10,27,01,35,6.80
2013,10,27,01,36,6.80
2013,10,27,01,37,6.80
2013,10,27,01,38,6.80
2013,10,27,01,39,6.80
2013,10,27,01,40,6.90
2013,10,27,01,41,6.90
2013,10,27,01,42,6.90
2013,10,27,01,43,6.90
2013,10,27,01,44,6.90
2013,10,27,01,45,7.00
2013,10,27,01,46,7.00
2013,10,27,01,47,6.90
2013,10,27,01,48,6.90
2013,10,27,01,49,6.90
2013,10,27,01,50,6.90
2013,10,27,01,51,6.90
2013,10,27,01,52,6.90
2013,10,27,01,53,6.90
2013,10,27,01,54,7.00
2013,10,27,01,55,7.00
2013,10,27,01,56,7.00
2013,10,27,01,57,7.00
2013,10,27,01,58,7.00
2013,10,27,01,59,7.00
2013,10,27,02,00,7.10
2013,10,27,02,01,7.10
2013,10,27,02,02,7.10
2013,10,27,02,03,7.10
2013,10,27,02,04,7.10
2013,10,27,02,05,7.10
2013,10,27,02,06,7.20
2013,10,27,02,07,7.20
2013,10,27,02,08,7.20
2013,10,27,02,09,7.30
2013,10,27,02,10,7.40
2013,10,27,02,11,7.40
2013,10,27,02,12,7.50
2013,10,27,02,13,7.50
2013,10,27,02,14,7.60
2013,10,27,02,15,7.60
2013,10,27,02,16,7.70
2013,10,27,02,17,7.70
2013,10,27,02,18,7.70
2013,10,27,02,19,7.70
2013,10,27,02,20,7.70
2013,10,27,02,21,7.70
2013,10,27,02,22,7.60
2013,10,27,02,23,7.50
2013,10,27,02,24,7.40
2013,10,27,02,25,7.40
2013,10,27,02,26,7.30
2013,10,27,02,27,7.20
2013,10,27,02,28,7.10
2013,10,27,02,29,7.00
2013,10,27,02,30,7.00
2013,10,27,02,31,6.90
2013,10,27,02,32,6.80
2013,10,27,02,33,6.80
2013,10,27,02,34,6.70
2013,10,27,02,35,6.60
2013,10,27,02,36,6.60
2013,10,27,02,37,6.50
2013,10,27,02,38,6.50
2013,10,27,02,39,6.40
2013,10,27,02,40,6.40
2013,10,27,02,41,6.40
2013,10,27,02,42,6.40
2013,10,27,02,43,6.40
2013,10,27,02,44,6.40
2013,10,27,02,45,6.50
2013,10,27,02,46,6.50
2013,10,27,02,47,6.60
2013,10,27,02,48,6.60
2013,10,27,02,49,6.70
2013,10,27,02,50,6.80
2013,10,27,02,51,6.80
2013,10,27,02,52,6.90
2013,10,27,02,53,6.90
2013,10,27,02,54,7.00
2013,10,27,02,55,7.00
2013,10,27,02,56,7.10
2013,10,27,02,57,7.20
2013,10,27,02,58,7.20
2013,10,27,02,59,7.20
2013,10,27,03,00,7.20
2013,10,27,03,01,7.10
2013,10,27,03,02,7.10
2013,10,27,03,03,7.10
2013,10,27,03,04,7.00
2013,10,27,03,05,7.10
2013,10,27,03,06,7.10
2013,10,27,03,07,7.10
2013,10,27,03,08,7.10
2013,10,27,03,09,7.10
2013,10,27,03,10,7.10
2013,10,27,03,11,7.20
2013,10,27,03,12,7.20
2013,10,27,03,13,7.20
2013,10,27,03,14,7.30
2013,10,27,03,15,7.30
2013,10,27,03,16,7.30
2013,10,27,03,17,7.30
2013,10,27,03,18,7.30
2013,10,27,03,19,7.40
2013,10,27,03,20,7.40
2013,10,27,03,21,7.40
2013,10,27,03,22,7.40
2013,10,27,03,23,7.40
2013,10,27,03,24,7.40
2013,10,27,03,25,7.30
2013,10,27,03,26,7.20
2013,10,27,03,27,7.10
2013,10,27,03,28,7.00
2013,10,27,03,29,6.90
2013,10,27,03,30,6.80
2013,10,27,03,31,6.80
2013,10,27,03,32,6.70
2013,10,27,03,33,6.70
2013,10,27,03,34,6.70
2013,10,27,03,35,6.70
2013,10,27,03,36,6.70
2013,10,27,03,37,6.70
2013,10,27,03,38,6.70
2013,10,27,03,39,6.70
2013,10,27,03,40,6.60
2013,10,27,03,41,6.60
2013,10,27,03,42,6.60
2013,10,27,03,43,6.60
2013,10,27,03,44,6.60
2013,10,27,03,45,6.60
2013,10,27,03,46,6.60
2013,10,27,03,47,6.60
2013,10,27,03,48,6.60
2013,10,27,03,49,6.50
2013,10,27,03,50,6.60
2013,10,27,03,51,6.60
2013,10,27,03,52,6.60
2013,10,27,03,53,6.50
2013,10,27,03,54,6.50
2013,10,27,03,55,6.50
2013,10,27,03,56,6.60
2013,10,27,03,57,6.60
2013,10,27,03,58,6.70
2013,10,27,03,59,6.70
2013,10,27,04,00,6.70
2013,10,27,04,01,6.70
2013,10,27,04,02,6.70
2013,10,27,04,03,6.70
2013,10,27,04,04,6.70
2013,10,27,04,05,6.80
2013,10,27,04,06,6.80
2013,10,27,04,07,6.80
2013,10,27,04,08,6.80
2013,10,27,04,09,6.80
2013,10,27,04,10,6.80
2013,10,27,04,11,6.80
2013,10,27,04,12,6.80
2013,10,27,04,13,6.80
2013,10,27,04,14,6.80
2013,10,27,04,15,6.80
2013,10,27,04,16,6.80
2013,10,27,04,17,6.80
2013,10,27,04,18,6.80
2013,10,27,04,19,6.80
2013,10,27,04,20,6.80
2013,10,27,04,21,6.80
2013,10,27,04,22,6.80
2013,10,27,04,23,6.80
2013,10,27,04,24,6.80
2013,10,27,04,25,6.90
2013,10,27,04,26,6.90
2013,10,27,04,27,7.00
2013,10,27,04,28,7.10
2013,10,27,04,29,7.20
2013,10,27,04,30,7.30
2013,10,27,04,31,7.40
2013,10,27,04,32,7.50
2013,10,27,04,33,7.50
2013,10,27,04,34,7.60
2013,10,27,04,35,7.60
2013,10,27,04,36,7.70
2013,10,27,04,37,7.80
2013,10,27,04,38,7.80
2013,10,27,04,39,7.90
2013,10,27,04,40,8.00
2013,10,27,04,41,8.10
2013,10,27,04,42,8.10
2013,10,27,04,43,8.20
2013,10,27,04,44,8.30
2013,10,27,04,45,8.40
2013,10,27,04,46,8.40
2013,10,27,04,47,8.50
2013,10,27,04,48,8.60
2013,10,27,04,49,8.70
2013,10,27,04,50,8.80
2013,10,27,04,51,8.90
2013,10,27,04,52,8.90
2013,10,27,04,53,9.00
2013,10,27,04,54,9.00
2013,10,27,04,55,9.10
2013,10,27,04,56,9.10
2013,10,27,04,57,9.20
2013,10,27,04,58,9.20
2013,10,27,04,59,9.20
2013,10,27,05,00,9.20
2013,10,27,05,01,9.20
2013,10,27,05,02,9.30
2013,10,27,05,03,9.30
2013,10,27,05,04,9.30
2013,10,27,05,05,9.30
2013,10,27,05,06,9.20
2013,10,27,05,07,9.30
2013,10,27,05,08,9.30
2013,10,27,05,09,9.30
2013,10,27,05,10,9.30
2013,10,27,05,11,9.30
2013,10,27,05,12,9.40
2013,10,27,05,13,9.40
2013,10,27,05,14,9.40
2013,10,27,05,15,9.40
2013,10,27,05,16,9.40
2013,10,27,05,17,9.50
2013,10,27,05,18,9.50
2013,10,27,05,19,9.50
2013,10,27,05,20,9.60
2013,10,27,05,21,9.60
2013,10,27,05,22,9.60
2013,10,27,05,23,9.60
2013,10,27,05,24,9.70
2013,10,27,05,25,9.70
2013,10,27,05,26,9.80
2013,10,27,05,27,9.80
2013,10,27,05,28,9.90
2013,10,27,05,29,10.00
2013,10,27,05,30,10.00
2013,10,27,05,31,10.10
2013,10,27,05,32,10.20
2013,10,27,05,33,10.20
2013,10,27,05,34,10.30
2013,10,27,05,35,10.40
2013,10,27,05,36,10.40
2013,10,27,05,37,10.40
2013,10,27,05,38,10.50
2013,10,27,05,39,10.50
2013,10,27,05,40,10.60
2013,10,27,05,41,10.60
2013,10,27,05,42,10.60
2013,10,27,05,43,10.60
2013,10,27,05,44,10.70
2013,10,27,05,45,10.70
2013,10,27,05,46,10.70
2013,10,27,05,47,10.70
2013,10,27,05,48,10.70
2013,10,27,05,49,10.70
2013,10,27,05,50,10.70
2013,10,27,05,51,10.70
2013,10,27,05,52,10.70
2013,10,27,05,53,10.70
2013,10,27,05,54,10.70
2013,10,27,05,55,10.70
2013,10,27,05,56,10.70
2013,10,27,05,57,10.70
2013,10,27,05,58,10.70
2013,10,27,05,59,10.70
2013,10,27,06,00,10.70
2013,10,27,06,01,10.70
2013,10,27,06,02,10.70
2013,10,27,06,03,10.70
2013,10,27,06,04,10.70
2013,10,27,06,05,10.70
2013,10,27,06,06,10.70
2013,10,27,06,07,10.70
2013,10,27,06,08,10.70
2013,10,27,06,09,10.70
2013,10,27,06,10,10.70
2013,10,27,06,11,10.70
2013,10,27,06,12,10.70
2013,10,27,06,13,10.70
2013,10,27,06,14,10.70
2013,10,27,06,15,10.70
2013,10,27,06,16,10.70
2013,10,27,06,17,10.70
2013,10,27,06,18,10.70
2013,10,27,06,19,10.70
2013,10,27,06,20,10.70
2013,10,27,06,21,10.70
2013,10,27,06,22,10.70
2013,10,27,06,23,10.70
2013,10,27,06,24,10.70
2013,10,27,06,25,10.70
2013,10,27,06,26,10.70
2013,10,27,06,27,10.70
2013,10,27,06,28,10.70
2013,10,27,06,29,10.60
2013,10,27,06,30,10.60
2013,10,27,06,31,10.60
2013,10,27,06,32,10.60
2013,10,27,06,33,10.60
2013,10,27,06,34,10.60
2013,10,27,06,35,10.60
2013,10,27,06,36,10.60
2013,10,27,06,37,10.60
2013,10,27,06,38,10.60
2013,10,27,06,39,10.60
2013,10,27,06,40,10.60
2013,10,27,06,41,10.60
2013,10,27,06,42,10.60
2013,10,27,06,43,10.60
2013,10,27,06,44,10.60
2013,10,27,06,45,10.60
2013,10,27,06,46,10.60
2013,10,27,06,47,10.60
2013,10,27,06,48,10.60
2013,10,27,06,49,10.60
2013,10,27,06,50,10.60
2013,10,27,06,51,10.60
2013,10,27,06,52,10.60
2013,10,27,06,53,10.60
2013,10,27,06,54,10.60
2013,10,27,06,55,10.50
2013,10,27,06,56,10.50
2013,10,27,06,57,10.50
2013,10,27,06,58,10.50
2013,10,27,06,59,10.40
2013,10,27,07,00,10.40
2013,10,27,07,01,10.40
2013,10,27,07,02,10.40
2013,10,27,07,03,10.40
2013,10,27,07,04,10.40
2013,10,27,07,05,10.30
2013,10,27,07,06,10.30
2013,10,27,07,07,10.30
2013,10,27,07,08,10.30
2013,10,27,07,09,10.30
2013,10,27,07,10,10.30
2013,10,27,07,11,10.30
2013,10,27,07,12,10.30
2013,10,27,07,13,10.30
2013,10,27,07,14,10.30
2013,10,27,07,15,10.30
2013,10,27,07,16,10.30
2013,10,27,07,17,10.30
2013,10,27,07,18,10.30
2013,10,27,07,19,10.30
2013,10,27,07,20,10.30
2013,10,27,07,21,10.30
2013,10,27,07,22,10.30
2013,10,27,07,23,10.30
2013,10,27,07,24,10.30
2013,10,27,07,25,10.30
2013,10,27,07,26,10.30
2013,10,27,07,27,10.30
2013,10,27,07,28,10.30
2013,10,27,07,29,10.30
2013,10,27,07,30,10.20
2013,10,27,07,31,10.20
2013,10,27,07,32,10.30
2013,10,27,07,33,10.30
2013,10,27,07,34,10.20
2013,10,27,07,35,10.20
2013,10,27,07,36,10.20
2013,10,27,07,37,10.20
2013,10,27,07,38,10.20
2013,10,27,07,39,10.20
2013,10,27,07,40,10.20
2013,10,27,07,41,10.20
2013,10,27,07,42,10.10
2013,10,27,07,43,10.20
2013,10,27,07,44,10.20
2013,10,27,07,45,10.10
2013,10,27,07,46,10.20
2013,10,27,07,47,10.20
2013,10,27,07,48,10.20
2013,10,27,07,49,10.20
2013,10,27,07,50,10.20
2013,10,27,07,51,10.20
2013,10,27,07,52,10.20
2013,10,27,07,53,10.20
2013,10,27,07,54,10.20
2013,10,27,07,55,10.20
2013,10,27,07,56,10.20
2013,10,27,07,57,10.20
2013,10,27,07,58,10.20
2013,10,27,07,59,10.20
2013,10,27,08,00,10.30
2013,10,27,08,01,10.30
2013,10,27,08,02,10.30
2013,10,27,08,03,10.30
2013,10,27,08,04,10.30
2013,10,27,08,05,10.40
2013,10,27,08,06,10.40
2013,10,27,08,07,10.40
2013,10,27,08,08,10.40
2013,10,27,08,09,10.40
2013,10,27,08,10,10.40
2013,10,27,08,11,10.40
2013,10,27,08,12,10.50
2013,10,27,08,13,10.50
2013,10,27,08,14,10.50
2013,10,27,08,15,10.60
2013,10,27,08,16,10.60
2013,10,27,08,17,10.60
2013,10,27,08,18,10.60
2013,10,27,08,19,10.60
2013,10,27,08,20,10.50
2013,10,27,08,21,10.50
2013,10,27,08,22,10.50
2013,10,27,08,23,10.50
2013,10,27,08,24,10.40
2013,10,27,08,25,10.40
2013,10,27,08,26,10.40
2013,10,27,08,27,10.40
2013,10,27,08,28,10.40
2013,10,27,08,29,10.40
2013,10,27,08,30,10.40
2013,10,27,08,31,10.50
2013,10,27,08,32,10.50
2013,10,27,08,33,10.50
2013,10,27,08,34,10.60
2013,10,27,08,35,10.60
2013,10,27,08,36,10.60
2013,10,27,08,37,10.60
2013,10,27,08,38,10.60
2013,10,27,08,39,10.60
2013,10,27,08,40,10.60
2013,10,27,08,41,10.60
2013,10,27,08,42,10.60
2013,10,27,08,43,10.70
2013,10,27,08,44,10.70
2013,10,27,08,45,10.70
2013,10,27,08,46,10.80
2013,10,27,08,47,10.80
2013,10,27,08,48,10.80
2013,10,27,08,49,10.90
2013,10,27,08,50,10.90
2013,10,27,08,51,11.00
2013,10,27,08,52,11.00
2013,10,27,08,53,11.00
2013,10,27,08,54,11.10
2013,10,27,08,55,11.10
2013,10,27,08,56,11.10
2013,10,27,08,57,11.20
2013,10,27,08,58,11.20
2013,10,27,08,59,11.20
2013,10,27,09,00,11.20
2013,10,27,09,01,11.20
2013,10,27,09,02,11.20
2013,10,27,09,03,11.30
2013,10,27,09,04,11.30
2013,10,27,09,05,11.30
2013,10,27,09,06,11.30
2013,10,27,09,07,11.30
2013,10,27,09,08,11.30
2013,10,27,09,09,11.40
2013,10,27,09,10,11.40
2013,10,27,09,11,11.40
2013,10,27,09,12,11.50
2013,10,27,09,13,11.50
2013,10,27,09,14,11.50
2013,10,27,09,15,11.60
2013,10,27,09,16,11.60
2013,10,27,09,17,11.60
2013,10,27,09,18,11.60
2013,10,27,09,19,11.70
2013,10,27,09,20,11.70
2013,10,27,09,21,11.70
2013,10,27,09,22,11.70
2013,10,27,09,23,11.70
2013,10,27,09,24,11.70
2013,10,27,09,25,11.70
2013,10,27,09,26,11.80
2013,10,27,09,27,11.80
2013,10,27,09,28,11.80
2013,10,27,09,29,11.80
2013,10,27,09,30,11.90
2013,10,27,09,31,11.90
2013,10,27,09,32,11.90
2013,10,27,09,33,11.90
2013,10,27,09,34,11.90
2013,10,27,09,35,11.90
2013,10,27,09,36,12.00
2013,10,27,09,37,12.00
2013,10,27,09,38,12.10
2013,10,27,09,39,12.10
2013,10,27,09,40,12.10
2013,10,27,09,41,12.10
2013,10,27,09,42,12.10
2013,10,27,09,43,12.20
2013,10,27,09,44,12.20
2013,10,27,09,45,12.20
2013,10,27,09,46,12.30
2013,10,27,09,47,12.30
2013,10,27,09,48,12.30
2013,10,27,09,49,12.30
2013,10,27,09,50,12.40
2013,10,27,09,51,12.40
2013,10,27,09,52,12.40
2013,10,27,09,53,12.40
2013,10,27,09,54,12.40
2013,10,27,09,55,12.40
2013,10,27,09,56,12.50
2013,10,27,09,57,12.50
2013,10,27,09,58,12.50
2013,10,27,09,59,12.50
2013,10,27,10,00,12.60
2013,10,27,10,01,12.60
2013,10,27,10,02,12.60
2013,10,27,10,03,12.60
2013,10,27,10,04,12.70
2013,10,27,10,05,12.70
2013,10,27,10,06,12.70
2013,10,27,10,07,12.70
2013,10,27,10,08,12.80
2013,10,27,10,09,12.80
2013,10,27,10,10,12.80
2013,10,27,10,11,12.80
2013,10,27,10,12,12.80
2013,10,27,10,13,12.90
2013,10,27,10,14,12.90
2013,10,27,10,15,12.90
2013,10,27,10,16,12.90
2013,10,27,10,17,12.90
2013,10,27,10,18,12.90
2013,10,27,10,19,12.90
2013,10,27,10,20,12.90
2013,10,27,10,21,12.90
2013,10,27,10,22,13.00
2013,10,27,10,23,13.00
2013,10,27,10,24,13.00
2013,10,27,10,25,13.10
2013,10,27,10,26,13.10
2013,10,27,10,27,13.10
2013,10,27,10,28,13.20
2013,10,27,10,29,13.20
2013,10,27,10,30,13.20
2013,10,27,10,31,13.20
2013,10,27,10,32,13.30
2013,10,27,10,33,13.30
2013,10,27,10,34,13.30
2013,10,27,10,35,13.30
2013,10,27,10,36,13.30
2013,10,27,10,37,13.30
2013,10,27,10,38,13.30
2013,10,27,10,39,13.30
2013,10,27,10,40,13.30
2013,10,27,10,41,13.30
2013,10,27,10,42,13.30
2013,10,27,10,43,13.40
2013,10,27,10,44,13.40
2013,10,27,10,45,13.40
2013,10,27,10,46,13.40
2013,10,27,10,47,13.50
2013,10,27,10,48,13.50
2013,10,27,10,49,13.60
2013,10,27,10,50,13.60
2013,10,27,10,51,13.60
2013,10,27,10,52,13.60
2013,10,27,10,53,13.60
2013,10,27,10,54,13.60
2013,10,27,10,55,13.70
2013,10,27,10,56,13.70
2013,10,27,10,57,13.70
2013,10,27,10,58,13.70
2013,10,27,10,59,13.70
2013,10,27,11,00,13.70
2013,10,27,11,01,13.70
2013,10,27,11,02,13.80
2013,10,27,11,03,13.80
2013,10,27,11,04,13.80
2013,10,27,11,05,13.80
2013,10,27,11,06,13.80
2013,10,27,11,07,13.90
2013,10,27,11,08,13.90
2013,10,27,11,09,13.90
2013,10,27,11,10,14.00
2013,10,27,11,11,14.00
2013,10,27,11,12,14.10
2013,10,27,11,13,14.10
2013,10,27,11,14,14.20
2013,10,27,11,15,14.20
2013,10,27,11,16,14.20
2013,10,27,11,17,14.30
2013,10,27,11,18,14.30
2013,10,27,11,19,14.30
2013,10,27,11,20,14.30
2013,10,27,11,21,14.30
2013,10,27,11,22,14.30
2013,10,27,11,23,14.40
2013,10,27,11,24,14.40
2013,10,27,11,25,14.40
2013,10,27,11,26,14.40
2013,10,27,11,27,14.40
2013,10,27,11,28,14.40
2013,10,27,11,29,14.50
2013,10,27,11,30,14.50
2013,10,27,11,31,14.60
2013,10,27,11,32,14.60
2013,10,27,11,33,14.60
2013,10,27,11,34,14.60
2013,10,27,11,35,14.60
2013,10,27,11,36,14.60
2013,10,27,11,37,14.60
2013,10,27,11,38,14.60
2013,10,27,11,39,14.60
2013,10,27,11,40,14.70
2013,10,27,11,41,14.70
2013,10,27,11,42,14.70
2013,10,27,11,43,14.80
2013,10,27,11,44,14.80
2013,10,27,11,45,14.90
2013,10,27,11,46,15.00
2013,10,27,11,47,15.00
2013,10,27,11,48,15.00
2013,10,27,11,49,15.00
2013,10,27,11,50,15.00
2013,10,27,11,51,15.00
2013,10,27,11,52,15.00
2013,10,27,11,53,15.10
2013,10,27,11,54,15.10
2013,10,27,11,55,15.20
2013,10,27,11,56,15.20
2013,10,27,11,57,15.20
2013,10,27,11,58,15.20
2013,10,27,11,59,15.20
2013,10,27,12,00,15.30
2013,10,27,12,01,15.30
2013,10,27,12,02,15.40
2013,10,27,12,03,15.40
2013,10,27,12,04,15.50
2013,10,27,12,05,15.50
2013,10,27,12,06,15.60
2013,10,27,12,07,15.60
2013,10,27,12,08,15.60
2013,10,27,12,09,15.70
2013,10,27,12,10,15.70
2013,10,27,12,11,15.70
2013,10,27,12,12,15.70
2013,10,27,12,13,15.80
2013,10,27,12,14,15.80
2013,10,27,12,15,15.80
2013,10,27,12,16,15.80
2013,10,27,12,17,15.80
2013,10,27,12,18,15.90
2013,10,27,12,19,15.90
2013,10,27,12,20,15.90
2013,10,27,12,21,15.90
2013,10,27,12,22,16.00
2013,10,27,12,23,16.00
2013,10,27,12,24,16.00
2013,10,27,12,25,16.00
2013,10,27,12,26,16.00
2013,10,27,12,27,16.00
2013,10,27,12,28,16.00
2013,10,27,12,29,16.10
2013,10,27,12,30,16.10
2013,10,27,12,31,16.10
2013,10,27,12,32,16.10
2013,10,27,12,33,16.10
2013,10,27,12,34,16.20
2013,10,27,12,35,16.20
2013,10,27,12,36,16.20
2013,10,27,12,37,16.20
2013,10,27,12,38,16.20
2013,10,27,12,39,16.20
2013,10,27,12,40,16.20
2013,10,27,12,41,16.20
2013,10,27,12,42,16.20
2013,10,27,12,43,16.20
2013,10,27,12,44,16.20
2013,10,27,12,45,16.20
2013,10,27,12,46,16.20
2013,10,27,12,47,16.20
2013,10,27,12,48,16.30
2013,10,27,12,49,16.30
2013,10,27,12,50,16.30
2013,10,27,12,51,16.40
2013,10,27,12,52,16.40
2013,10,27,12,53,16.40
2013,10,27,12,54,16.40
2013,10,27,12,55,16.40
2013,10,27,12,56,16.40
2013,10,27,12,57,16.40
2013,10,27,12,58,16.40
2013,10,27,12,59,16.40
2013,10,27,13,00,16.40
2013,10,27,13,01,16.40
2013,10,27,13,02,16.40
2013,10,27,13,03,16.40
2013,10,27,13,04,16.40
2013,10,27,13,05,16.40
2013,10,27,13,06,16.50
2013,10,27,13,07,16.50
2013,10,27,13,08,16.50
2013,10,27,13,09,16.50
2013,10,27,13,10,16.50
2013,10,27,13,11,16.60
2013,10,27,13,12,16.60
2013,10,27,13,13,16.60
2013,10,27,13,14,16.60
2013,10,27,13,15,16.60
2013,10,27,13,16,16.60
2013,10,27,13,17,16.70
2013,10,27,13,18,16.70
2013,10,27,13,19,16.70
2013,10,27,13,20,16.70
2013,10,27,13,21,16.80
2013,10,27,13,22,16.80
2013,10,27,13,23,16.80
2013,10,27,13,24,16.80
2013,10,27,13,25,16.90
2013,10,27,13,26,16.90
2013,10,27,13,27,16.90
2013,10,27,13,28,16.90
2013,10,27,13,29,17.00
2013,10,27,13,30,17.00
2013,10,27,13,31,17.00
2013,10,27,13,32,17.00
2013,10,27,13,33,17.00
2013,10,27,13,34,17.00
2013,10,27,13,35,17.00
2013,10,27,13,36,17.00
2013,10,27,13,37,17.00
2013,10,27,13,38,17.10
2013,10,27,13,39,17.10
2013,10,27,13,40,17.10
2013,10,27,13,41,17.10
2013,10,27,13,42,17.10
2013,10,27,13,43,17.10
2013,10,27,13,44,17.10
2013,10,27,13,45,17.10
2013,10,27,13,46,17.00
2013,10,27,13,47,17.00
2013,10,27,13,48,17.00
2013,10,27,13,49,17.00
2013,10,27,13,50,17.10
2013,10,27,13,51,17.10
2013,10,27,13,52,17.10
2013,10,27,13,53,17.10
2013,10,27,13,54,17.20
2013,10,27,13,55,17.20
2013,10,27,13,56,17.20
2013,10,27,13,57,17.20
2013,10,27,13,58,17.20
2013,10,27,13,59,17.30
2013,10,27,14,00,17.20
2013,10,27,14,01,17.20
2013,10,27,14,02,17.20
2013,10,27,14,03,17.20
2013,10,27,14,04,17.20
2013,10,27,14,05,17.30
2013,10,27,14,06,17.30
2013,10,27,14,07,17.30
2013,10,27,14,08,17.30
2013,10,27,14,09,17.30
2013,10,27,14,10,17.30
2013,10,27,14,11,17.30
2013,10,27,14,12,17.40
2013,10,27,14,13,17.40
2013,10,27,14,14,17.40
2013,10,27,14,15,17.40
2013,10,27,14,16,17.40
2013,10,27,14,17,17.50
2013,10,27,14,18,17.50
2013,10,27,14,19,17.50
2013,10,27,14,20,17.60
2013,10,27,14,21,17.60
2013,10,27,14,22,17.60
2013,10,27,14,23,17.60
2013,10,27,14,24,17.60
2013,10,27,14,25,17.60
2013,10,27,14,26,17.60
2013,10,27,14,27,17.50
2013,10,27,14,28,17.60
2013,10,27,14,29,17.60
2013,10,27,14,30,17.60
2013,10,27,14,31,17.60
2013,10,27,14,32,17.60
2013,10,27,14,33,17.60
2013,10,27,14,34,17.70
2013,10,27,14,35,17.70
2013,10,27,14,36,17.70
2013,10,27,14,37,17.70
2013,10,27,14,38,17.70
2013,10,27,14,39,17.70
2013,10,27,14,40,17.70
2013,10,27,14,41,17.80
2013,10,27,14,42,17.80
2013,10,27,14,43,17.80
2013,10,27,14,44,17.80
2013,10,27,14,45,17.90
2013,10,27,14,46,17.90
2013,10,27,14,47,17.90
2013,10,27,14,48,17.90
2013,10,27,14,49,17.90
2013,10,27,14,50,17.90
2013,10,27,14,51,17.80
2013,10,27,14,52,17.80
2013,10,27,14,53,17.80
2013,10,27,14,54,17.80
2013,10,27,14,55,17.80
2013,10,27,14,56,17.80
2013,10,27,14,57,17.90
2013,10,27,14,58,17.90
2013,10,27,14,59,17.90
2013,10,27,15,00,17.90
2013,10,27,15,01,17.80
2013,10,27,15,02,17.80
2013,10,27,15,03,17.80
2013,10,27,15,04,17.80
2013,10,27,15,05,17.80
2013,10,27,15,06,17.80
2013,10,27,15,07,17.80
2013,10,27,15,08,17.80
2013,10,27,15,09,17.90
2013,10,27,15,10,17.90
2013,10,27,15,11,17.90
2013,10,27,15,12,17.90
2013,10,27,15,13,17.80
2013,10,27,15,14,17.80
2013,10,27,15,15,17.80
2013,10,27,15,16,17.80
2013,10,27,15,17,17.80
2013,10,27,15,18,17.80
2013,10,27,15,19,17.80
2013,10,27,15,20,17.80
2013,10,27,15,21,17.80
2013,10,27,15,22,17.90
2013,10,27,15,23,17.90
2013,10,27,15,24,17.90
2013,10,27,15,25,17.90
2013,10,27,15,26,17.90
2013,10,27,15,27,17.90
2013,10,27,15,28,17.90
2013,10,27,15,29,17.90
2013,10,27,15,30,17.80
2013,10,27,15,31,17.80
2013,10,27,15,32,17.80
2013,10,27,15,33,17.90
2013,10,27,15,34,17.90
2013,10,27,15,35,17.90
2013,10,27,15,36,17.90
2013,10,27,15,37,17.90
2013,10,27,15,38,17.90
2013,10,27,15,39,17.90
2013,10,27,15,40,17.90
2013,10,27,15,41,17.80
2013,10,27,15,42,17.80
2013,10,27,15,43,17.80
2013,10,27,15,44,17.80
2013,10,27,15,45,17.80
2013,10,27,15,46,17.80
2013,10,27,15,47,17.80
2013,10,27,15,48,17.80
2013,10,27,15,49,17.70
2013,10,27,15,50,17.70
2013,10,27,15,51,17.70
2013,10,27,15,52,17.70
2013,10,27,15,53,17.70
2013,10,27,15,54,17.70
2013,10,27,15,55,17.70
2013,10,27,15,56,17.70
2013,10,27,15,57,17.70
2013,10,27,15,58,17.70
2013,10,27,15,59,17.70
2013,10,27,16,00,17.70
2013,10,27,16,01,17.70
2013,10,27,16,02,17.80
2013,10,27,16,03,17.80
2013,10,27,16,04,17.80
2013,10,27,16,05,17.80
2013,10,27,16,06,17.80
2013,10,27,16,07,17.80
2013,10,27,16,08,17.70
2013,10,27,16,09,17.70
2013,10,27,16,10,17.70
2013,10,27,16,11,17.60
2013,10,27,16,12,17.60
2013,10,27,16,13,17.60
2013,10,27,16,14,17.60
2013,10,27,16,15,17.60
2013,10,27,16,16,17.60
2013,10,27,16,17,17.60
2013,10,27,16,18,17.60
2013,10,27,16,19,17.60
2013,10,27,16,20,17.60
2013,10,27,16,21,17.60
2013,10,27,16,22,17.60
2013,10,27,16,23,17.60
2013,10,27,16,24,17.60
2013,10,27,16,25,17.60
2013,10,27,16,26,17.60
2013,10,27,16,27,17.60
2013,10,27,16,28,17.50
2013,10,27,16,29,17.50
2013,10,27,16,30,17.50
2013,10,27,16,31,17.50
2013,10,27,16,32,17.50
2013,10,27,16,33,17.40
2013,10,27,16,34,17.40
2013,10,27,16,35,17.40
2013,10,27,16,36,17.40
2013,10,27,16,37,17.40
2013,10,27,16,38,17.30
2013,10,27,16,39,17.30
2013,10,27,16,40,17.30
2013,10,27,16,41,17.30
2013,10,27,16,42,17.20
2013,10,27,16,43,17.20
2013,10,27,16,44,17.10
2013,10,27,16,45,17.10
2013,10,27,16,46,17.10
2013,10,27,16,47,17.10
2013,10,27,16,48,17.00
2013,10,27,16,49,17.00
2013,10,27,16,50,16.90
2013,10,27,16,51,16.90
2013,10,27,16,52,16.90
2013,10,27,16,53,16.90
2013,10,27,16,54,16.90
2013,10,27,16,55,16.90
2013,10,27,16,56,16.80
2013,10,27,16,57,16.80
2013,10,27,16,58,16.80
2013,10,27,16,59,16.80
2013,10,27,17,00,16.70
2013,10,27,17,01,16.70
2013,10,27,17,02,16.70
2013,10,27,17,03,16.70
2013,10,27,17,04,16.60
2013,10,27,17,05,16.60
2013,10,27,17,06,16.60
2013,10,27,17,07,16.60
2013,10,27,17,08,16.60
2013,10,27,17,09,16.50
2013,10,27,17,10,16.50
2013,10,27,17,11,16.50
2013,10,27,17,12,16.50
2013,10,27,17,13,16.40
2013,10,27,17,14,16.40
2013,10,27,17,15,16.40
2013,10,27,17,16,16.30
2013,10,27,17,17,16.30
2013,10,27,17,18,16.30
2013,10,27,17,19,16.20
2013,10,27,17,20,16.10
2013,10,27,17,21,16.10
2013,10,27,17,22,16.00
2013,10,27,17,23,16.00
2013,10,27,17,24,15.90
2013,10,27,17,25,15.90
2013,10,27,17,26,15.90
2013,10,27,17,27,15.80
2013,10,27,17,28,15.80
2013,10,27,17,29,15.70
2013,10,27,17,30,15.70
2013,10,27,17,31,15.70
2013,10,27,17,32,15.60
2013,10,27,17,33,15.60